Location: Deuil
(48.9767°N, 2.3272°E)
Time: 20:45:00
(UTC+00:00)

Cosmos 389 Rocket - Visible Passes

Search period start: 25 May 2022 00:00
Search period end: 04 June 2022 00:00
Orbit: 431 x 460 km, 81.1° (Epoch: 25 May)

Date Brightness Start Highest point End Pass type
(mag) Time Alt. Az. Time Alt. Az. Time Alt. Az.
25 May 2.9 20:11:11 10° N 20:14:35 46° ENE 20:17:58 10° SSE visible
25 May 5.2 21:46:54 10° WNW 21:48:36 13° W 21:50:18 10° WSW visible
26 May 4.4 21:08:57 10° NW 21:11:57 26° W 21:14:55 10° SSW visible
27 May 3.0 20:31:41 10° NNW 20:35:08 57° W 20:38:35 10° S visible
28 May 5.6 21:31:37 10° WNW 21:32:05 10° W 21:32:34 10° W visible
29 May 4.9 20:52:43 10° NW 20:55:24 21° W 20:58:04 10° SW visible
01 Jun 5.3 20:36:23 10° NW 20:38:41 16° W 20:40:57 10° SW visible
